This demonstration page uses our WeatherBlox Daily Observations layout. Learn more.

Left ArrowRight Arrow

Hourly Observations for May 25, 2015

Temp ( °F °C ) Dew Point ( °F °C ) Humidity (%) Winds ( mph kmh ) Pressure ( in mb ) Visibility ( mi km ) Precip ( " mm )
12:53 am 00:53 Clear 66 18.9 42 5.6 42 42 SE 10 17 29.67 1005 10 16 0.00 0.00
1:53 am 01:53 Clear 64 17.8 47 8.3 54 54 SSE 8 13 29.69 1005 10 16 0.00 0.00
2:53 am 02:53 Clear 68 20 53 11.7 59 59 SSE 15 24 29.67 1005 10 16 0.00 0.00
3:53 am 03:53 Partly Cloudy with Light Rain 72 22.2 54 12.2 53 53 SSE 29 46 29.66 1005 10 16 0.00 0.03
4:24 am 04:24 Cloudy with Thunderstorms 72 22 57 14 61 61 S 8 13 29.71 1006 10 16 0.00 0.00
4:53 am 04:53 Mostly Cloudy 69 20.6 59 15 70 70 SE 6 9 29.69 1005 10 16 0.00 0.03
5:49 am 05:49 Mostly Cloudy with Thunderstorms 68 20 57 14 69 69 Calm 29.74 1007 10 16 0.00 0.00
5:50 am 05:50 Mostly Cloudy with Thunderstorms 68 20 58 14.4 70 70 Calm 29.70 1006 10 16 0.00 0.00
6:15 am 06:15 Cloudy with Nearby Thunderstorms 67 19.4 61 16.1 81 81 WNW 9 15 29.77 1008 10 16 0.00 0.03
6:36 am 06:36 Mostly Cloudy with Light Rain 66 19 61 16 83 83 NW 9 15 29.74 1007 10 16 0.00 0.00
6:50 am 06:50 Partly Cloudy with Nearby Thunderstorms 66 19 61 16 83 83 WNW 9 15 29.74 1007 10 16 0.00 0.00
6:53 am 06:53 Partly Cloudy with Nearby Thunderstorms 66 18.9 61 16.1 84 84 NW 9 15 29.70 1006 10 16 0.03 0.76
7:05 am 07:05 Partly Cloudy with Light Rain 65 18.3 58 14.4 78 78 WNW 8 13 29.71 1006 10 16 0.00 0.03
7:53 am 07:53 Sunny 62 16.7 56 13.3 80 80 Calm 29.73 1007 10 16 0.00 0.03
8:53 am 08:53 undefined 71 21.7 52 11.1 51 51 Calm 29.73 1007 10 16 0.00 0.00
9:53 am 09:53 Sunny 72 22.2 51 10.6 48 48 ESE 9 15 29.78 1008 10 16 0.00 0.00
10:53 am 10:53 Sunny 74 23.3 50 10 43 43 E 13 20 29.79 1009 10 16 0.00 0.00
11:53 am 11:53 Sunny 75 23.9 49 9.4 40 40 ESE 14 22 29.80 1009 10 16 0.00 0.00
12:53 pm 12:53 Sunny 79 26.1 48 8.9 34 34 E 8 13 29.79 1009 10 16 0.00 0.00
1:53 pm 13:53 Sunny 81 27.2 43 6.1 26 26 S 7 11 29.78 1008 10 16 0.00 0.00
2:53 pm 14:53 Mostly Sunny 81 27.2 43 6.1 26 26 SE 9 15 29.75 1007 10 16 0.00 0.00
3:53 pm 15:53 Sunny 85 29.4 42 5.6 22 22 SE 10 17 29.72 1006 10 16 0.00 0.00
4:53 pm 16:53 Sunny 88 31.1 28 -2.2 11 11 WSW 20 31 29.70 1006 10 16 0.00 0.03
5:53 pm 17:53 Sunny 87 30.6 28 -2.2 12 12 W 14 22 29.69 1005 10 16 0.00 0.00
6:53 pm 18:53 Sunny 87 30.6 27 -2.8 11 11 WSW 16 26 29.67 1005 10 16 0.00 0.00
7:53 pm 19:53 Sunny 85 29.4 27 -2.8 12 12 WSW 13 20 29.68 1005 10 16 0.00 0.00
8:53 pm 20:53 Clear 79 26.1 32 0 18 18 WSW 8 13 29.70 1006 10 16 0.00 0.00
9:53 pm 21:53 Clear 73 22.8 35 1.7 25 25 WSW 6 9 29.73 1007 10 16 0.00 0.00
10:53 pm 22:53 Clear 67 19.4 41 5 39 39 WSW 9 15 29.76 1008 10 16 0.00 0.00
11:53 pm 23:53 Clear 66 18.9 40 4.4 39 39 SW 8 13 29.78 1008 10 16 0.00 0.00

Powered by AerisWeather